Weather History for CWZQ - December, 2011

Change the Weather History Date:

Monday, December 12, 2011

  Actual Average Record
Temperature  
Mean Temperature 35 °F -  
Max Temperature 41 °F - - ()
Min Temperature 29 °F - - ()
Degree Days  
Heating Degree Days 30    
Moisture  
Dew Point 27 °F    
Average Humidity 74    
Maximum Humidity 91    
Minimum Humidity 54    
Precipitation  
Precipitation 0.00 in - - ()
Sea Level Pressure  
Sea Level Pressure 30.41 in    
Wind  
Wind Speed 18 mph ()    
Max Wind Speed 33 mph    
Max Gust Speed 41 mph    
T = Trace of Precipitation, MM = Missing Value Source: Averaged Metar Reports

Daily Weather History Graph

Daily Weather History Graph

Search for Another Location

Airport or City:

Trip Planner

Search our weather history database for the weather conditions in past years. The results will help you decide how hot, cold, wet, or windy it might be!

Date:

Astronomy

Dec. 12, 2011 Rise Set
Actual Time 7:38 AM AST 4:16 PM AST
Civil Twilight 7:03 AM AST 4:51 PM AST
Nautical Twilight 6:25 AM AST 5:30 PM AST
Astronomical Twilight 5:48 AM AST 6:06 PM AST
Moon 6:25 PM AST (12/12) 9:05 AM AST (12/12)
Length of Visible Light 9h 47m
Length of Day
8h 38m
Waning Gibbous, 96% of the Moon is Illuminated
Dec 12
Waning Gibbous
Dec 17
Last Quarter
Dec 24
New
Jan 1
First Quarter
Jan 9
Full

Hourly Weather History & Observations

Time (AST) Temp. Windchill Dew Point Humidity Pressure Visibility Wind Dir Wind Speed Gust Speed Precip Events Conditions
12:00 AM 30.0 °F 16.6 °F 23.9 °F 78% 30.49 in - West 23.0 mph - N/A   Unknown
12:20 AM 29.7 °F 17.8 °F 26.2 °F 87% - - West 17.3 mph - N/A   Unknown
1:00 AM 29.5 °F 16.2 °F 25.3 °F 85% 30.48 in - West 21.9 mph 27.6 mph N/A   Unknown
1:20 AM 29.8 °F 16.6 °F 24.8 °F 81% - - West 21.9 mph - N/A   Unknown
1:40 AM 29.8 °F 17.3 °F 23.9 °F 79% - - West 19.6 mph - N/A   Unknown
2:00 AM 30.4 °F 16.7 °F 24.1 °F 77% 30.48 in - WSW 24.2 mph - N/A   Unknown
2:20 AM 30.4 °F 18.0 °F 23.4 °F 75% - - WSW 19.6 mph - N/A   Unknown
2:40 AM 30.2 °F 18.1 °F 21.9 °F 71% - - WSW 18.4 mph - N/A   Unknown
3:00 AM 30.6 °F 17.9 °F 22.8 °F 73% 30.49 in - WSW 20.7 mph - N/A   Unknown
3:20 AM 30.4 °F 17.7 °F 21.7 °F 70% - - WSW 20.7 mph - N/A   Unknown
3:40 AM 30.9 °F 18.7 °F 23.0 °F 72% - - WSW 19.6 mph 26.5 mph N/A   Unknown
4:00 AM 32.0 °F 19.5 °F 24.1 °F 73% 30.47 in - WSW 21.9 mph 28.8 mph N/A   Unknown
4:20 AM 31.6 °F 19.0 °F 22.6 °F 69% - - WSW 21.9 mph - N/A   Unknown
4:40 AM 31.6 °F 19.7 °F 22.3 °F 68% - - WSW 19.6 mph - N/A   Unknown
5:00 AM 32.0 °F 18.9 °F 22.6 °F 68% 30.45 in - SW 24.2 mph - N/A   Unknown
5:40 AM 33.3 °F 20.9 °F 24.4 °F 70% - - SW 23.0 mph - N/A   Unknown
6:00 AM 33.6 °F 20.8 °F 24.8 °F 70% 30.45 in - SW 25.3 mph - N/A   Unknown
6:20 AM 31.3 °F 18.5 °F 22.1 °F 69% - - SW 21.9 mph - N/A   Unknown
6:40 AM 30.9 °F 20.7 °F 22.1 °F 70% - - South 13.8 mph 24.2 mph N/A   Unknown
7:00 AM 29.8 °F 16.0 °F 21.0 °F 70% 30.42 in - South 24.2 mph - N/A   Unknown
7:20 AM 30.2 °F 19.3 °F 20.8 °F 68% - - South 15.0 mph 23.0 mph N/A   Unknown
7:40 AM 30.2 °F 19.3 °F 19.4 °F 64% - - South 15.0 mph 23.0 mph N/A   Unknown
8:00 AM 31.1 °F 19.3 °F 16.0 °F 54% 30.40 in - South 18.4 mph 25.3 mph N/A   Unknown
8:20 AM 31.1 °F 20.5 °F 19.4 °F 62% - - South 15.0 mph 20.7 mph N/A   Unknown
8:40 AM 30.9 °F 19.8 °F 20.7 °F 66% - - South 16.1 mph - N/A   Unknown
9:00 AM 31.1 °F 19.3 °F 21.2 °F 67% 30.40 in - South 18.4 mph - N/A   Unknown
9:20 AM 31.6 °F 20.7 °F 22.6 °F 69% - - South 16.1 mph 21.9 mph N/A   Unknown
9:40 AM 34.9 °F 24.6 °F 28.0 °F 76% - - SSW 17.3 mph 27.6 mph N/A   Unknown
10:00 AM 37.6 °F 24.6 °F 31.6 °F 79% 30.40 in - SW 33.4 mph 41.4 mph N/A   Unknown
10:20 AM 37.9 °F 25.5 °F 31.8 °F 79% - - SW 31.1 mph 40.3 mph N/A   Unknown
10:40 AM 38.3 °F 26.2 °F 32.0 °F 78% - - WSW 29.9 mph - N/A   Unknown
11:00 AM 38.5 °F 25.8 °F 31.8 °F 77% 30.39 in - SW 33.4 mph - N/A   Unknown
11:20 AM 38.8 °F 27.3 °F 31.6 °F 75% - - SW 27.6 mph - N/A   Unknown
11:40 AM 39.6 °F 28.3 °F 31.8 °F 74% - - WSW 27.6 mph 34.5 mph N/A   Unknown
12:00 PM 39.7 °F 28.3 °F 31.8 °F 73% 30.38 in - WSW 28.8 mph - N/A   Unknown
12:20 PM 41.2 °F 30.9 °F 31.8 °F 69% - - WSW 25.3 mph - N/A   Unknown
12:40 PM 40.5 °F 30.2 °F 31.8 °F 71% - - WSW 24.2 mph - N/A   Unknown
1:00 PM 39.6 °F 28.5 °F 31.6 °F 73% 30.36 in - WSW 26.5 mph 33.4 mph N/A   Unknown
1:20 PM 39.4 °F 28.5 °F 30.6 °F 71% - - WSW 25.3 mph 32.2 mph N/A   Unknown
1:40 PM 39.6 °F 29.0 °F 31.3 °F 72% - - WSW 24.2 mph - N/A   Unknown
2:00 PM 40.3 °F 29.7 °F 30.7 °F 69% 30.36 in - West 25.3 mph - N/A   Unknown
2:20 PM 40.8 °F 31.1 °F 31.6 °F 70% - - West 21.9 mph - N/A   Unknown
2:40 PM 40.5 °F 30.7 °F 31.1 °F 69% - - West 21.9 mph - N/A   Unknown
3:00 PM 41.0 °F 30.9 °F 31.6 °F 69% 30.36 in - WSW 24.2 mph - N/A   Unknown
3:20 PM 40.8 °F 31.7 °F 32.0 °F 71% - - West 19.6 mph - N/A   Unknown
3:40 PM 40.6 °F 32.0 °F 31.5 °F 70% - - West 17.3 mph - N/A   Unknown
4:00 PM 40.3 °F 30.7 °F 30.7 °F 69% 30.37 in - WSW 20.7 mph - N/A   Unknown
4:20 PM 39.7 °F 31.2 °F 30.6 °F 70% - - WSW 16.1 mph - N/A   Unknown
4:40 PM 39.7 °F 31.2 °F 31.5 °F 72% - - WSW 16.1 mph - N/A   Unknown
5:00 PM 39.7 °F 31.2 °F 31.1 °F 71% 30.38 in - WSW 16.1 mph - N/A   Unknown
5:20 PM 39.9 °F 31.8 °F 30.6 °F 69% - - WSW 15.0 mph - N/A   Unknown
5:40 PM 39.9 °F 31.4 °F 31.5 °F 72% - - West 16.1 mph - N/A   Unknown
6:00 PM 39.9 °F 31.4 °F 32.0 °F 73% 30.39 in - West 16.1 mph - N/A   Unknown
6:20 PM 40.1 °F 31.6 °F 31.6 °F 72% - - West 16.1 mph - N/A   Unknown
6:40 PM 39.9 °F 31.1 °F 31.3 °F 71% - - West 17.3 mph - N/A   Unknown
7:00 PM 39.9 °F 31.1 °F 31.6 °F 72% 30.40 in - West 17.3 mph - N/A   Unknown
7:20 PM 39.4 °F 33.2 °F 31.8 °F 74% - - West 9.2 mph - N/A   Unknown
7:40 PM 39.2 °F 33.0 °F 31.8 °F 75% - - West 9.2 mph - N/A   Unknown
8:00 PM 38.8 °F 31.2 °F 32.0 °F 76% 30.40 in - WNW 12.7 mph - N/A   Unknown
8:20 PM 38.5 °F 35.0 °F 31.6 °F 76% - - WNW 4.6 mph - N/A   Unknown
8:40 PM 32.9 °F 29.8 °F 27.3 °F 80% - - SE 3.5 mph - N/A   Unknown
9:00 PM 32.0 °F 26.4 °F 27.7 °F 84% 30.40 in - SE 5.8 mph - N/A   Unknown
9:20 PM 31.5 °F 24.9 °F 29.1 °F 91% - - SE 6.9 mph - N/A   Unknown
9:40 PM 32.0 °F 26.4 °F 28.2 °F 86% - - SE 5.8 mph - N/A   Unknown
10:00 PM 31.6 °F 25.1 °F 27.9 °F 86% 30.41 in - SSE 6.9 mph - N/A   Unknown
10:20 PM 33.3 °F 28.9 °F 27.9 °F 81% - - SSE 4.6 mph - N/A   Unknown
10:40 PM 31.8 °F 26.2 °F 27.3 °F 83% - - SSE 5.8 mph - N/A   Unknown
11:00 PM 31.6 °F 25.1 °F 27.5 °F 85% 30.40 in - SSE 6.9 mph - N/A   Unknown
11:20 PM 31.8 °F 25.4 °F 27.3 °F 83% - - SSE 6.9 mph - N/A   Unknown
11:40 PM 31.5 °F 24.9 °F 27.9 °F 87% - - SE 6.9 mph - N/A   Unknown